sat.trackr.live / text

‹ back to catalog

KUIPER-00266

NORAD 67789 · 2026-030AB

PAYLOAD ACTIVE UNKNOWN

§ Identity

Operator
Country
US
Launch date
2026-02-12
Launch site
FRGUI
Launch vehicle
Mass (kg)
RCS (m²)

External: N2YO · Heavens-Above · Gunter

§ Orbital elements

Epoch: 2026-05-25T04:00:03.998880Z

Period
95.66 min
Inclination
51.8920°
Eccentricity
0.0021566
Mean motion
15.05267630 rev/d
Perigee alt
535.7 km
Apogee alt
565.6 km
Semi-major
6,928.8 km
B*
2.0532e-3
RAAN
216.1666°
Arg perigee
351.5925°
Mean anomaly
31.8431°
Rev number
588

§ Raw data

KUIPER-002661 67789U 26030AB  26145.16671295  .00029674  00000+0  20532-2 0  99942 67789  51.8920 216.1666 0021566 351.5925  31.8431 15.05267630  5888

JSON: /api/v1/satellites/67789 · /tle

For live sub-satellite position, see the globe view (requires WebGL).

§ Visibility from observer

Set your observer location to see the next 7 days of passes ≥ 10°. The values pass through the URL so the page stays shareable.

No JS? Fill the form by hand. The geolocation button needs JavaScript.